OITA_AIRPORT current weather conditions

sailwx.info

Wind from 280 at 4 knots

Air temperature 2.0° C
Visibility: greater than 5.4 NM
Dewpoint -4.0° C

Last reported at 2017-Dec-12 12:00 UTC.
Time now 2017-Dec-12 13:56 UTC

Location: N 33°28' E 131°43'.
View on Google Maps.

See reports from other nearby stations

  
Tides and Currents Weather Stations Pressure Air Temp Water Temp Dewpoint Dewpoint Depression Visibility Wind Speed Wind Dir Waves Ship Positions
date/time (UTC)wind fromknots sea level pressurealtimeterstation pressurevisibilityair tempwater tempwave heightnotes
2017-Dec-12 13:00 270 4 5.4 3.0
2017-Dec-12 12:00 280 4 5.4 2.0
2017-Dec-12 11:00 310 5 5.4 3.0
2017-Dec-12 10:00 330 5 5.4 3.0
2017-Dec-12 09:00 340 6 5.4 3.0
2017-Dec-12 08:00 300 9 5.4 3.0 Showers in the vicinity.
2017-Dec-12 07:00 300 11 5.4 4.0
2017-Dec-12 06:00 310 9 5.4 4.0
2017-Dec-12 05:00 320 13 5.4 4.0
2017-Dec-12 04:00 290 12 5.4 4.0
2017-Dec-12 03:00 300 13 5.4 4.0
2017-Dec-12 02:00 300 11 gusting 22 5.4 4.0 Showers in the vicinity.
2017-Dec-12 01:00 300 8 5.4 4.0 Showers in the vicinity.
2017-Dec-12 00:00 310 11 5.4 3.0 Showers in the vicinity.
2017-Dec-11 23:00 300 4 5.4 2.0 Light snow showers.
2017-Dec-11 22:00 310 6 5.4 1.0 Light snow showers.
2017-Dec-11 21:51 330 6 5.4 1.0 Light snow showers.
2017-Dec-11 21:38 300 6 1.3 1.0 Light snow showers.
2017-Dec-11 13:16 310 14 gusting 25 5.4 4.0
2017-Dec-11 13:05 300 21 5.4 5.0
2017-Dec-11 13:00 310 12 5.4 5.0
2017-Dec-11 12:10 290 14 gusting 27 5.4 6.0
2017-Dec-11 12:00 300 14 5.4 5.0
2017-Dec-11 11:21 300 14 gusting 28 5.4 6.0
2017-Dec-11 11:00 270 5 5.4 6.0
2017-Dec-11 10:00 280 6 5.4 5.0
2017-Dec-11 09:00 280 11 5.4 6.0
2017-Dec-11 08:00 290 8 5.4 6.0 Showers in the vicinity.
2017-Dec-11 07:00 290 13 gusting 24 5.4 7.0
2017-Dec-11 06:00 280 11 gusting 21 5.4 7.0 Showers in the vicinity.
2017-Dec-11 05:00 290 11 gusting 21 5.4 9.0
2017-Dec-11 04:00 300 13 5.4 8.0
2017-Dec-11 03:00 300 17 gusting 28 5.4 9.0
2017-Dec-11 02:04 290 17 gusting 27 5.410.0
2017-Dec-11 02:00 290 18 5.410.0
2017-Dec-11 01:22 300 14 gusting 25 5.4 9.0
2017-Dec-11 01:00 290 8 5.4 9.0
2017-Dec-11 00:18 290 14 gusting 25 5.4 9.0
2017-Dec-11 00:00 290 11 5.4 9.0
2017-Dec-10 23:00 260 6 5.4 8.0
2017-Dec-10 22:00 240 4 5.4 7.0
2017-Dec-10 13:00 5.4 9.0